Petersburg, VA

3:23 AM EDT on April 30, 2017 (GMT -0400)
Dinwiddie County

Weather History for KPTB - February, 2013

Change the Weather History Date:

Saturday, February 23, 2013

  Actual Average (KRIC) Record (KRIC)
Temperature  
Mean Temperature 40 °F -  
Max Temperature 44 °F 53 °F 75 °F (1985)
Min Temperature 37 °F 33 °F 12 °F (1963)
Degree Days  
Heating Degree Days 24    
Moisture  
Dew Point 40 °F    
Average Humidity 95    
Maximum Humidity 100    
Minimum Humidity 87    
Precipitation  
Precipitation 0.29 in - - ()
Sea Level Pressure  
Sea Level Pressure 29.96 in    
Wind  
Wind Speed 5 mph (NNW)    
Max Wind Speed 8 mph    
Max Gust Speed -    
Visibility 5 miles    
Events Rain    
Averages and records for this station are not official NWS values.
T = Trace of Precipitation, MM = Missing Value Source: NWS Daily Summary

Daily Weather History Graph

Daily Weather History Graph

Search for Another Location

Airport or City:

Trip Planner

Search our weather history database for the weather conditions in past years. The results will help you decide how hot, cold, wet, or windy it might be!

Date:

Astronomy

Feb. 23, 2013 Rise Set
Actual Time 6:48 AM EST 5:58 PM EST
Civil Twilight 6:22 AM EST 6:24 PM EST
Nautical Twilight 5:52 AM EST 6:55 PM EST
Astronomical Twilight 5:22 AM EST 7:25 PM EST
Moon 4:08 PM EST (2/23) 5:08 AM EST (2/23)
Length of Visible Light 12h 02m
Length of Day
11h 09m
Waxing Gibbous, 95% of the Moon is Illuminated
Feb 23
Waxing Gibbous
Feb 25
Full
Mar 4
Last Quarter
Mar 11
New
Mar 19
First Quarter

Hourly Weather History & Observations

Time (EST) Temp. Windchill Dew Point Humidity Pressure Visibility Wind Dir Wind Speed Gust Speed Precip Events Conditions
12:15 AM 37.4 °F 32.8 °F 37.4 °F 100% 30.18 in 2.0 mi North 5.8 mph - 0.01 in   Light Drizzle
12:35 AM 37.4 °F 32.8 °F 37.4 °F 100% 30.16 in 3.0 mi North 5.8 mph - 0.02 in   Light Drizzle
12:55 AM 37.4 °F 31.4 °F 37.4 °F 100% 30.13 in 3.0 mi North 8.1 mph - 0.03 in   Light Drizzle
1:15 AM 37.4 °F 32.8 °F 37.4 °F 100% 30.13 in 2.5 mi North 5.8 mph - 0.01 in   Light Drizzle
1:35 AM 37.4 °F 33.8 °F 37.4 °F 100% 30.14 in 3.0 mi North 4.6 mph - 0.01 in Rain Light Rain
1:55 AM 37.4 °F 33.8 °F 37.4 °F 100% 30.13 in 3.0 mi North 4.6 mph - 0.02 in   Light Drizzle
2:15 AM 37.4 °F 32.8 °F 37.4 °F 100% 30.13 in 2.0 mi NNW 5.8 mph - N/A Rain Light Rain
2:35 AM 37.4 °F 32.8 °F 37.4 °F 100% 30.13 in 2.0 mi NNW 5.8 mph - 0.01 in   Light Drizzle
2:55 AM 37.4 °F 33.8 °F 37.4 °F 100% 30.11 in 2.5 mi North 4.6 mph - 0.03 in   Light Drizzle
3:15 AM 37.4 °F 33.8 °F 37.4 °F 100% 30.10 in 4.0 mi North 4.6 mph - N/A   Overcast
3:35 AM 37.4 °F 34.9 °F 37.4 °F 100% 30.08 in 4.0 mi North 3.5 mph - N/A   Overcast
3:55 AM 37.4 °F 33.8 °F 37.4 °F 100% 30.06 in 7.0 mi NNE 4.6 mph - 0.01 in   Overcast
4:15 AM 39.2 °F 35.9 °F 37.4 °F 93% 30.04 in 4.0 mi NNE 4.6 mph - N/A   Light Drizzle
4:35 AM 39.2 °F 37.0 °F 37.4 °F 93% 30.05 in 7.0 mi North 3.5 mph - N/A   Light Drizzle
4:55 AM 39.2 °F 35.9 °F 37.4 °F 93% 30.05 in 5.0 mi North 4.6 mph - N/A Rain Light Rain
5:15 AM 39.2 °F 35.9 °F 37.4 °F 93% 30.04 in 4.0 mi North 4.6 mph - N/A   Overcast
5:35 AM 39.2 °F 35.0 °F 37.4 °F 93% 30.02 in 4.0 mi NNE 5.8 mph - N/A Rain Light Rain
5:55 AM 39.2 °F 35.9 °F 37.4 °F 93% 30.03 in 2.5 mi NNW 4.6 mph - N/A   Overcast
6:15 AM 39.2 °F 35.9 °F 37.4 °F 93% 30.04 in 2.0 mi NW 4.6 mph - N/A   Overcast
6:35 AM 39.2 °F 35.0 °F 37.4 °F 93% 30.03 in 1.8 mi NNW 5.8 mph - N/A   Overcast
6:55 AM 39.2 °F 35.0 °F 37.4 °F 93% 30.04 in 1.8 mi NNW 5.8 mph - N/A   Overcast
7:15 AM 39.2 °F 34.2 °F 37.4 °F 93% 30.05 in 1.0 mi WNW 6.9 mph - N/A Rain Light Rain
7:35 AM 39.2 °F 35.9 °F 37.4 °F 93% 30.05 in 1.2 mi WNW 4.6 mph - N/A Rain Light Rain
7:55 AM 39.2 °F 35.9 °F 37.4 °F 93% 30.03 in 1.8 mi NNW 4.6 mph - 0.01 in Rain Rain
8:15 AM 39.2 °F 37.0 °F 37.4 °F 93% 30.03 in 4.0 mi NNW 3.5 mph - 0.02 in Rain Rain
8:35 AM 39.2 °F 37.0 °F 37.4 °F 93% 30.01 in 3.0 mi North 3.5 mph - 0.07 in   Overcast
8:55 AM 39.2 °F 35.0 °F 37.4 °F 93% 29.98 in 5.0 mi North 5.8 mph - 0.09 in Rain Light Rain
9:15 AM 39.2 °F 35.9 °F 37.4 °F 93% 29.97 in 7.0 mi North 4.6 mph - 0.04 in Rain Rain
9:35 AM 39.2 °F 37.0 °F 39.2 °F 100% 29.98 in 10.0 mi NW 3.5 mph - 0.06 in Rain Light Rain
9:55 AM 39.2 °F 37.0 °F 37.4 °F 93% 29.96 in 10.0 mi North 3.5 mph - 0.07 in Rain Light Rain
10:15 AM 39.2 °F 37.0 °F 39.2 °F 100% 29.96 in 10.0 mi North 3.5 mph - 0.01 in Rain Light Rain
10:35 AM 39.2 °F 35.9 °F 39.2 °F 100% 29.95 in 10.0 mi NNW 4.6 mph - 0.02 in Rain Light Rain
10:55 AM 41.0 °F - 39.2 °F 93% 29.95 in 10.0 mi Calm Calm - 0.02 in Rain Rain
11:15 AM 41.0 °F - 39.2 °F 93% 29.95 in 10.0 mi Calm Calm - N/A Rain Light Rain
11:35 AM 41.0 °F - 39.2 °F 93% 29.94 in 10.0 mi Calm Calm - 0.01 in Rain Light Rain
11:55 AM 42.8 °F 41.1 °F 39.2 °F 87% 29.95 in 10.0 mi WNW 3.5 mph - 0.01 in   Light Drizzle
12:15 PM 41.0 °F 35.8 °F 39.2 °F 93% 29.94 in 7.0 mi WNW 8.1 mph - N/A   Overcast
12:35 PM 42.8 °F 38.6 °F 41.0 °F 93% 29.93 in 3.0 mi NW 6.9 mph - N/A   Overcast
12:55 PM 42.8 °F 38.6 °F 41.0 °F 93% 29.93 in 4.0 mi WNW 6.9 mph - N/A   Overcast
1:15 PM 42.8 °F 38.0 °F 41.0 °F 93% 29.92 in 5.0 mi WNW 8.1 mph - N/A   Overcast
1:35 PM 42.8 °F 39.3 °F 41.0 °F 93% 29.90 in 4.0 mi NW 5.8 mph - N/A   Overcast
1:55 PM 42.8 °F 40.1 °F 41.0 °F 93% 29.90 in 2.0 mi WNW 4.6 mph - N/A   Overcast
2:15 PM 42.8 °F 39.3 °F 41.0 °F 93% 29.90 in 5.0 mi NW 5.8 mph - N/A   Overcast
2:35 PM 42.8 °F 38.6 °F 41.0 °F 93% 29.90 in 5.0 mi WNW 6.9 mph - N/A   Overcast
2:55 PM 42.8 °F 39.3 °F 41.0 °F 93% 29.90 in 5.0 mi WNW 5.8 mph - N/A   Overcast
3:15 PM 42.8 °F 39.3 °F 41.0 °F 93% 29.89 in 7.0 mi NW 5.8 mph - N/A   Overcast
3:35 PM 42.8 °F 38.6 °F 41.0 °F 93% 29.90 in 5.0 mi NW 6.9 mph - N/A   Overcast
3:55 PM 42.8 °F 40.1 °F 41.0 °F 93% 29.89 in 5.0 mi WNW 4.6 mph - N/A   Overcast
4:15 PM 42.8 °F 41.1 °F 41.0 °F 93% 29.87 in 5.0 mi NW 3.5 mph - N/A   Overcast
4:35 PM 42.8 °F 41.1 °F 42.8 °F 100% 29.87 in 7.0 mi WNW 3.5 mph - N/A   Overcast
4:55 PM 44.6 °F 42.2 °F 42.8 °F 93% 29.87 in 7.0 mi NW 4.6 mph - N/A   Overcast
5:15 PM 44.6 °F 43.1 °F 42.8 °F 93% 29.85 in 7.0 mi NW 3.5 mph - N/A   Overcast
5:35 PM 44.6 °F 42.2 °F 42.8 °F 93% 29.86 in 7.0 mi WNW 4.6 mph - N/A   Overcast
5:55 PM 44.6 °F 43.1 °F 42.8 °F 93% 29.87 in 10.0 mi WNW 3.5 mph - N/A   Overcast
6:15 PM 44.6 °F - 42.8 °F 93% 29.87 in 7.0 mi Calm Calm - N/A   Overcast
6:35 PM 44.6 °F - 42.8 °F 93% 29.87 in 7.0 mi Calm Calm - N/A   Overcast
6:55 PM 44.6 °F - 42.8 °F 93% 29.86 in 10.0 mi Calm Calm - N/A   Overcast
7:15 PM 44.6 °F 43.1 °F 42.8 °F 93% 29.85 in 7.0 mi NNW 3.5 mph - N/A   Overcast
7:55 PM 44.6 °F - 42.8 °F 93% 29.84 in 7.0 mi Calm Calm - N/A   Overcast
8:15 PM 44.6 °F 43.1 °F 42.8 °F 93% 29.83 in 7.0 mi NNW 3.5 mph - N/A   Overcast
8:35 PM 44.6 °F - 42.8 °F 93% 29.84 in 7.0 mi Calm Calm - N/A   Overcast
8:55 PM 44.6 °F 43.1 °F 42.8 °F 93% 29.84 in 7.0 mi NNW 3.5 mph - N/A   Overcast
9:15 PM 44.6 °F - 42.8 °F 93% 29.84 in 7.0 mi Calm Calm - N/A   Overcast
9:35 PM 44.6 °F 43.1 °F 42.8 °F 93% 29.84 in 5.0 mi NW 3.5 mph - N/A   Overcast
9:55 PM 44.6 °F - 42.8 °F 93% 29.84 in 7.0 mi Calm Calm - N/A   Overcast
10:15 PM 44.6 °F - 42.8 °F 93% 29.84 in 7.0 mi Calm Calm - N/A   Overcast
10:35 PM 44.6 °F - 42.8 °F 93% 29.84 in 5.0 mi Calm Calm - N/A   Overcast
11:15 PM 44.6 °F - 42.8 °F 93% 29.82 in 4.0 mi Calm Calm - N/A   Overcast
11:35 PM 42.8 °F 41.1 °F 42.8 °F 100% 29.81 in 4.0 mi NNW 3.5 mph - N/A   Overcast
11:55 PM 42.8 °F - 42.8 °F 100% 29.82 in 3.0 mi Calm Calm - N/A   Overcast